Regional Weather Roundup
Issued by NWS Wakefield, VA

Home | Current Version | Previous Version | Text Only | Print | Product List | Glossary On
Versions: 1 2 3 4 5 6 7 8 9 10 11 12 13 14 15 16 17 18 19 20 21 22 23 24 25 26 27 28 29 30 31 32 33 34 35 36 37 38 39 40 41 42 43 44 45 46 47 48 49 50
428
ASUS41 KAKQ 070814
RWRAKQ

REGIONAL WEATHER ROUNDUP
NATIONAL WEATHER SERVICE WAKEFIELD VA
300 AM EST SUN FEB 07 2016

Note: "fair" indicates few or no clouds below 12,000 feet with no
significant weather and/or obstructions to visibility. * = Denotes
station may not report precipitation (e.g., rain,snow,etc.),
thunder or fog.

VAZ042-051-052>054-056-070900-
NORTHERN VIRGINIA

CITY           SKY/WX    TMP DP  RH WIND       PRES   REMARKS
WASH NATIONAL  FAIR      33  25  72 SW3       30.24F
DULLES         FAIR      27  21  78 CALM      30.22F
FORT BELVOIR   FAIR      26  23  88 CALM      30.22F
QUANTICO       FAIR      29  25  85 NW5       30.25F
FREDERICKSBRG* FAIR      27  23  87 CALM      30.23F
STAFFORD*      FAIR      24  22  91 CALM      30.28S
WARRENTON      FAIR      24  24  98 CALM      30.21F
CULPEPER*      FAIR      23  21  92 CALM      30.23F
MANASSAS*      FAIR      23  21  93 CALM      30.22F
LEESBURG*      FAIR      30  27  86 CALM      30.22F
WINCHESTER     FAIR      32  21  64 CALM      30.19F
FRONT ROYAL*   FAIR      30  21  69 S3        30.18F
LURAY*         FAIR      27  23  86 CALM      30.18F
$$

VAZ048-049-060>072-079>083-070900-
CENTRAL AND SOUTH CENTRAL VIRGINIA

CITY           SKY/WX    TMP DP  RH WIND       PRES   REMARKS
RICHMOND       CLOUDY    31  26  82 CALM      30.23F
CHESTERFIELD*  FAIR      30  16  55 CALM      30.24F
PETERSBURG*    FAIR      31  29  92 CALM      30.23F
HANOVER        FAIR      29  25  85 CALM      30.25F
TAPPAHANNOCK*  FAIR      31  28  88 CALM      30.24F
QUINTON*       FAIR      29  27  94 W5        30.23F
CHARLOTTSVILLE FAIR      29  19  66 W3        30.21F
GORDONSVILLE*  FAIR      25  23  91 CALM      30.22S
ORANGE*        FAIR      27  23  86 CALM      30.24S
LOUISA*        FAIR      32  19  59 CALM      30.20F
BUMPASS*       FAIR      27  22  80 CALM      30.23F
FARMVILLE*     FAIR      28  27  96 CALM      30.21F
CREWE*         CLOUDY    28  28 100 CALM      30.21F
FORT PICKETT*  FAIR      32  26  78 CALM      30.20F
CHASE CITY*    CLOUDY    32  27  83 CALM      30.19F
CLARKSVILLE*   CLOUDY    34  32  93 CALM      30.20F
SOUTH HILL*    FAIR      32  28  83 CALM      30.26F
LAWRENCEVILLE* FAIR      32  29  88 CALM      30.20F
EMPORIA*       FAIR      32  32 100 NW5       30.22F
$$

VAZ088>098-070900-
SOUTHEAST VIRGINIA

CITY           SKY/WX    TMP DP  RH WIND       PRES   REMARKS
NORFOLK        FAIR      38  26  62 N7        30.22F
VIRGINIA BEACH FAIR      37  27  67 NE3       30.21F
NORFOLK NAVAL  FAIR      36  27  69 N8        30.23F
WEST POINT*    FAIR      28  26  94 CALM      30.25F
SALUDA*        NOT AVBL
NEWPORT NEWS   FAIR      28  26  92 CALM      30.23F
LANGLEY AFB    FAIR      30  27  90 CALM      30.21F
FORT EUSTIS    FAIR      31  28  89 N1        30.21F
WILLIAMSBURG*  FAIR      32  30  93 CALM      30.23F
HR EXEC AP*    FAIR      28  25  86 CALM      30.23F
FRANKLIN*      MOCLDY    30  28  92 CALM      30.21F
US460-WAKEFLD  FAIR      30  27  88 N3        30.22F
$$

VAZ020-022-025-037-045-070900-
WEST CENTRAL AND SOUTHWEST VIRGINIA

CITY           SKY/WX    TMP DP  RH WIND       PRES   REMARKS
STAUNTON*      FAIR      28  23  82 CALM      30.19F
WAYNESBORO*    FAIR      25  18  76 CALM      30.17F
HOT SPRINGS VA FAIR      31  16  53 CALM      30.06F
LYNCHBURG      FAIR      23  20  88 CALM      30.21S
DANVILLE       MOCLDY    32  25  75 CALM      30.20F
SOUTH BOSTON*  PTSUNNY   31  27  86 CALM      30.20F
MARTINSVILLE   FAIR      23  19  86 CALM      30.21F
ROANOKE        FAIR      27  20  75 CALM      30.22R
BLACKSBURG     FAIR      24  20  85 CALM      30.18S
DUBLIN*        FAIR      26  23  86 CALM      30.18R
MARION*        FAIR      26  19  75 W5        30.17S
HILLSVILLE*    FAIR      30  17  58 NW6       30.12F
RICHLANDS*     FAIR      31  15  51 CALM      30.14F
WISE*          FAIR      32  14  47 W3        30.15F
ABINGDON*      FAIR      27  19  71 CALM      30.16F
$$

MDZ021>025-VAZ099-100-070900-
SOUTHERN MARYLAND AND THE DELMARVA PENINSULA

CITY           SKY/WX    TMP DP  RH WIND       PRES   REMARKS
PATUXENT RIVER CLOUDY    28  25  88 CALM      30.23F
BAY BRIDGE APT   N/A     32  32 100 CALM      30.24F
LEONARDTOWN    CLOUDY    30  27  86 CALM      30.25F
DOVER          PTCLDY    29  28  94 SW2       30.23F
GEORGETOWN     CLOUDY    26  25  96 CALM      30.24F
EASTON         MOCLDY    30  29  97 CALM      30.27F
CAMBRIDGE      CLOUDY    28  27  93 CALM      30.24F
SALISBURY      CLOUDY    26  24  92 CALM      30.24F
OCEAN CITY     CLEAR     26  24  92 NW3       30.24F
WALLOPS ISLAND FAIR      28  24  85 CALM      30.23F
ACCOMACK*      FAIR      27  23  86 CALM      30.24F
$$

NCZ012>017-030>032-070900-
NORTH CENTRAL AND EASTERN NORTH CAROLINA

CITY           SKY/WX    TMP DP  RH WIND       PRES   REMARKS
ROANOKE RAPIDS FAIR      34  32  93 CALM      30.20S
RALEIGH        CLOUDY    39  24  55 NE3       30.18F
ELIZABETH CITY CLOUDY    38  30  73 N12       30.18F
AHOSKIE*       CLOUDY    35  30  82 NE3       30.20F
EDENTON*       CLOUDY    38  33  79 NE3       30.20F
CURRITUCK*     CLOUDY    40  30  68 N10       30.20F
KILL DEVIL HLS CLOUDY    42  30  64 N10       30.15F
MANTEO         CLOUDY    41  32  69 NE16      30.18F
CAPE HATTERAS  CLOUDY    45  38  76 NE15G26   30.12F
TARBORO*       CLOUDY    39  32  75 N3        30.22S
GOLDSBORO      CLOUDY    37  37 100 NE5       30.15F
WASHINGTON     LGT RAIN  39  30  70 CALM      30.19F
GREENVILLE     CLOUDY    39  32  75 CALM      30.22R
NEW BERN       LGT RAIN  40  29  64 N17G23    30.16F
WILMINGTON     LGT RAIN  39  34  82 N16G26    30.09F
$$

VAZ048-070900-
ELSEWHERE

CITY           SKY/WX    TMP DP  RH WIND       PRES   REMARKS
HARRISBURG PA  CLEAR     25  19  78 CALM      30.22R
BALTIMORE      PTCLDY    27  22  81 CALM      30.23F
ANNAPOLIS      PTCLDY    31  25  78 CALM      30.23F
ANDREWS AFB    FAIR      29  24  82 S2        30.21F
PHILADELPHIA   PTCLDY    33  23  66 CALM      30.26S
HENDERSON NC   CLOUDY    34  25  69 CALM      30.19S
GREENSBORO     CLOUDY    35  19  52 N3        30.16F
ROCKY MOUNT    LGT RAIN  38  30  73 NE5       30.19F
$$

VAZ100-070900-
MARINE

STATION/POSITION TIME  TEMP    WIND        PRES    WAVE   SWELL
                       AIR SEA DIR/SP/G            HT/PER HT/PER
                 (UTC) (F)     (DEG/KT/KT) (MB)    (FT/S) (FT/S)
BRANDYWINE LGT   0700   37     240/  7/  8 1024.5F
CAPE MAY NJ      0700   33 42   CALM  /  1 1024.1F
LEWES DE         0700   31 42  260/  1/  1 1024.3F
15NM E FENWICK I 0750   39 45              1024.3R   2/ 9
OCEAN-CITY-INLET 0700   34 42   10/  3/  4 1023.7F
WACHAPREAGUE VA  0700   31 44   CALM  /  1 1024.7R
GOOSES REEF MD   0800   38 40  200/  4/  4 1024.7F   0
COVE POINT MD    0700   36     200/  3/  3 1025.0F
SOLOMONS ISLAND  0700   32 40  310/  2/  2   N/A
BISHOPS HEAD MD  0700   37 41  110/  4/  4 1023.5F
POTOMAC MD       0800   37 40  240/  4/  4 1023.2F   0
CAMBRIDGE MD     0700   32 40  100/  1/  2 1023.7F
LEWISETTA VA     0700   33 42  250/  3/  4 1024.5F
RAPPAHANNOCK LGT 0700           90/  2/  2 1024.7R
STINGRAY PT      0800   38 41     CALM     1023.6F   0
YORK RVR RNG VA  0700   39      30/  5/  5 1023.6S
YORKTOWN VA      0700   35 43  290/  4/  5 1024.3R
JAMESTOWN VA     0800   33 44   20/  2/  4   N/A     0
DOMINION TERM VA 0700   38      20/  2/  3 1024.5R
KIPTOPEKE VA     0700      43   50/  4/  5   N/A
CHES BAY BRIDGE  0700   39 43  360/  8/  9 1023.6F
CAPE HENRY VA    0700   39      10/ 10/ 11   N/A
CHESAPEAKE LGHT  0700   40      20/ 13/ 14 1024.6S
WILLOUBY STN VA  0700   40      10/  4/  5 1027.5S
CAPE HENRY BUOY  0728      45                N/A     3/11   2/11
1ST LANDING BUOY 0800      42                N/A     1/ 5
CAPE CHARLES BUO 0726      45                N/A     3/11   2/11
OFFSHORE WE BUOY 0721      49                N/A     4/10   3/10
64NM E OF VA BCH 0750   46 53   20/ 17/ 21 1021.9F   4/10   3/10
DUCK PIER NC     0700   42 45  360/ 15/ 18 1021.5F
44100 DUCK FRF   0724      47                N/A     4/10   2/11
44056 DUCK FRF   0711      44                N/A     4/10   2/11
OREGON INLET NC  0700   43 46   10/ 13/ 17 1021.6F
HATTERAS NC      0700   45 50   10/ 25/ 28 1020.1F
DIAMOND SHLS NC  0750   53 71   20/ 29/ 35 1017.3F   6/ 6   3/11
$$




USA.gov is the U.S. government's official web portal to all federal, state and local government web resources and services.